EW2348 Weather Reports


Display with metric or nautical units.
time (UTC)temp
F
wind
direction
speed
MPH
gust
MPH
rain 1hr
in
rain 24hr
in
rain mn
in
humidity
%
barometer
mb
20150803171018 80 107 9.0 19.0 0.00 0.54 0.54 63 1006.9
20150803170919 80 107 9.0 19.0 0.00 0.54 0.54 64 1006.8
20150803170718 80 106 6.0 19.0 0.00 0.54 0.54 64 1006.7
20150803170618 80 107 8.0 19.0 0.00 0.54 0.54 63 1006.6
20150803170415 79 116 14.0 19.0 0.00 0.54 0.54 63 1006.6
20150803170320 79 117 10.0 16.0 0.00 0.54 0.54 62 1006.6
20150803170218 80 113 11.0 15.0 0.00 0.54 0.54 62 1006.5
20150803170118 80 106 6.0 12.0 0.00 0.54 0.54 65 1006.8
20150803170021 79 103 7.0 12.0 0.00 0.54 0.54 63 1006.7
20150803165822 80 98 8.0 15.0 0.00 0.54 0.54 63 1006.7
20150803165614 80 100 7.0 15.0 0.00 0.54 0.54 63 1006.7
20150803165515 80 98 6.0 15.0 0.00 0.54 0.54 64 1006.6
20150803165424 80 96 3.0 15.0 0.00 0.54 0.54 63 1006.6
20150803165013 79 110 9.0 18.0 0.00 0.54 0.54 62 1006.5
20150803164914 79 115 10.0 18.0 0.00 0.54 0.54 63 1006.6
20150803164814 79 117 8.0 18.0 0.00 0.54 0.54 63 1006.5
20150803164714 79 116 7.0 18.0 0.00 0.54 0.54 64 1006.5
20150803164222 80 125 9.0 14.0 0.00 0.54 0.54 63 1006.6
20150803164120 79 119 7.0 14.0 0.00 0.54 0.54 63 1006.6
20150803163921 79 101 6.0 15.0 0.00 0.54 0.54 63 1006.5
20150803163814 80 95 8.0 15.0 0.00 0.54 0.54 65 1006.4
20150803163714 80 90 5.0 15.0 0.00 0.54 0.54 65 1006.6
20150803163615 80 83 7.0 15.0 0.00 0.54 0.54 65 1006.3
20150803163515 79 74 4.0 15.0 0.00 0.54 0.54 64 1006.4
20150803163414 79 71 5.0 15.0 0.00 0.54 0.54 64 1006.5
20150803163314 79 76 4.0 15.0 0.00 0.54 0.54 64 1006.6
20150803163013 79 75 8.0 18.0 0.00 0.54 0.54 62 1006.6
20150803162914 79 74 7.0 18.0 0.00 0.54 0.54 63 1006.6
20150803162714 79 77 7.0 18.0 0.00 0.54 0.54 63 1006.7
20150803162614 79 78 8.0 18.0 0.00 0.54 0.54 64 1006.7
20150803162514 79 79 5.0 18.0 0.00 0.54 0.54 63 1006.9
20150803162414 78 77 7.0 18.0 0.00 0.54 0.54 64 1006.9
20150803162214 79 71 7.0 16.0 0.00 0.54 0.54 64 1006.5
20150803161913 79 84 6.0 17.0 0.00 0.54 0.54 64 1006.6
20150803161813 79 85 7.0 17.0 0.00 0.54 0.54 64 1006.6
20150803161715 79 83 7.0 17.0 0.00 0.54 0.54 63 1006.9
20150803161614 79 84 7.0 17.0 0.00 0.54 0.54 63 1006.6
20150803161514 79 92 7.0 17.0 0.00 0.54 0.54 63 1006.7
20150803161313 79 113 9.0 17.0 0.00 0.54 0.54 63 1006.7
20150803161213 79 136 5.0 17.0 0.00 0.54 0.54 64 1006.7
20150803161114 78 156 5.0 17.0 0.00 0.54 0.54 64 1006.9
20150803161014 79 182 9.0 17.0 0.00 0.54 0.54 64 1006.7
20150803160814 79 209 3.0 5.0 0.00 0.54 0.54 66 1006.7
20150803160514 79 141 3.0 13.0 0.00 0.54 0.54 67 1006.7
20150803160314 79 115 3.0 13.0 0.00 0.54 0.54 67 1006.7
20150803160214 79 103 3.0 13.0 0.00 0.54 0.54 67 1006.7
20150803160113 79 100 3.0 13.0 0.00 0.54 0.54 67 1006.6
20150803160014 79 97 3.0 13.0 0.00 0.54 0.54 67 1006.8
20150803155813 78 96 7.0 13.0 0.00 0.54 0.54 67 1006.7
20150803155715 78 91 9.0 13.0 0.00 0.54 0.54 66 1006.9
20150803155614 78 92 7.0 13.0 0.00 0.54 0.54 68 1006.7
20150803155515 79 90 7.0 13.0 0.00 0.54 0.54 69 1006.7
20150803155314 79 94 6.0 14.0 0.00 0.54 0.54 71 1006.8
20150803155214 78 96 5.0 14.0 0.00 0.54 0.54 70 1006.6
20150803155114 77 94 3.0 14.0 0.00 0.54 0.54 69 1006.7
20150803155013 77 90 9.0 14.0 0.00 0.54 0.54 69 1006.8
20150803154914 78 89 7.0 14.0 0.00 0.54 0.54 68 1006.9
20150803154814 77 85 7.0 14.0 0.00 0.54 0.54 68 1006.7
20150803154714 77 85 5.0 14.0 0.00 0.54 0.54 69 1006.7
20150803154514 77 81 7.0 15.0 0.00 0.54 0.54 69 1006.6
20150803154214 77 71 4.0 15.0 0.00 0.54 0.54 69 1006.8
20150803153814 77 76 7.0 17.0 0.00 0.54 0.54 70 1006.9
20150803153614 76 82 6.0 17.0 0.00 0.54 0.54 69 1006.8
20150803153421 76 88 7.0 17.0 0.00 0.54 0.54 68 1006.9
20150803153314 76 89 7.0 17.0 0.00 0.54 0.54 69 1006.9
20150803153115 76 93 6.0 17.0 0.00 0.54 0.54 69 1006.8
20150803152915 76 91 6.0 15.0 0.00 0.54 0.54 69 1006.9
20150803152814 76 91 9.0 15.0 0.00 0.54 0.54 70 1007.1
20150803152714 76 90 5.0 13.0 0.00 0.54 0.54 69 1006.8
20150803152515 76 87 7.0 13.0 0.00 0.54 0.54 70 1007.0
20150803152414 76 82 7.0 13.0 0.00 0.54 0.54 70 1007.0
20150803152215 76 84 5.0 13.0 0.00 0.54 0.54 71 1006.8
20150803152114 76 87 7.0 13.0 0.00 0.54 0.54 73 1006.8
20150803152015 76 88 5.0 13.0 0.00 0.54 0.54 73 1006.9
20150803151814 76 82 5.0 13.0 0.00 0.54 0.54 72 1006.9
20150803151614 76 81 7.0 13.0 0.00 0.54 0.54 74 1007.0
20150803151314 75 83 3.0 12.0 0.00 0.54 0.54 74 1006.9
20150803151214 76 89 5.0 12.0 0.00 0.54 0.54 74 1007.1
20150803151113 75 90 5.0 12.0 0.00 0.54 0.54 73 1006.9
20150803151014 76 96 5.0 12.0 0.00 0.54 0.54 75 1006.9
20150803150914 76 102 5.0 12.0 0.00 0.54 0.54 76 1007.0
20150803150814 76 106 5.0 10.0 0.00 0.54 0.54 74 1007.0
20150803150714 75 106 3.0 10.0 0.00 0.54 0.54 75 1006.9
20150803150615 75 107 5.0 10.0 0.00 0.54 0.54 76 1006.9
20150803150313 75 110 7.0 10.0 0.00 0.54 0.54 76 1007.1
20150803150114 77 89 5.0 8.0 0.00 0.54 0.54 74 1006.9
20150803145914 76 86 3.0 7.0 0.00 0.54 0.54 74 1006.7
20150803145815 76 97 4.0 7.0 0.00 0.54 0.54 75 1006.8
20150803145714 76 101 2.0 7.0 0.00 0.54 0.54 75 1006.9
20150803145614 75 107 3.0 7.0 0.00 0.54 0.54 75 1007.0
20150803145513 76 112 5.0 8.0 0.00 0.54 0.54 75 1007.0
20150803145214 74 107 4.0 8.0 0.00 0.54 0.54 76 1007.0
20150803145114 74 105 3.0 8.0 0.00 0.54 0.54 76 1007.0
20150803145014 74 105 4.0 8.0 0.00 0.54 0.54 77 1006.9
20150803144914 74 104 3.0 8.0 0.00 0.54 0.54 77 1006.8
20150803144814 73 103 5.0 8.0 0.00 0.54 0.54 74 1006.9
20150803144714 73 99 5.0 8.0 0.00 0.54 0.54 75 1006.9
20150803144614 74 91 5.0 8.0 0.00 0.54 0.54 76 1007.0
20150803144514 74 86 4.0 8.0 0.00 0.54 0.54 77 1006.8
20150803144413 75 86 1.0 8.0 0.00 0.54 0.54 77 1007.0
20150803144313 74 85 1.0 8.0 0.00 0.54 0.54 77 1007.0
20150803144214 74 84 5.0 8.0 0.00 0.54 0.54 77 1006.9
20150803144114 73 81 3.0 7.0 0.00 0.54 0.54 77 1006.9
20150803143914 73 81 4.0 7.0 0.00 0.54 0.54 76 1006.9
20150803143614 72 82 3.0 8.0 0.00 0.54 0.54 75 1006.9
20150803143514 73 84 4.0 8.0 0.00 0.54 0.54 76 1006.7
20150803143113 73 90 3.0 9.0 0.00 0.54 0.54 77 1006.6
20150803143014 72 90 3.0 10.0 0.00 0.54 0.54 75 1006.7
20150803142613 72 92 5.0 10.0 0.00 0.54 0.54 78 1006.9
20150803142513 72 93 6.0 10.0 0.00 0.54 0.54 79 1006.9
20150803142414 72 93 3.0 10.0 0.00 0.54 0.54 78 1006.8
20150803142314 72 92 2.0 10.0 0.00 0.54 0.54 78 1006.8
20150803142214 72 92 4.0 10.0 0.00 0.54 0.54 78 1007.0
20150803142114 72 95 7.0 10.0 0.00 0.54 0.54 80 1006.8
20150803142014 72 99 5.0 10.0 0.00 0.54 0.54 79 1006.7
20150803141814 71 99 5.0 9.0 0.00 0.54 0.54 82 1006.7
20150803141714 71 97 5.0 9.0 0.00 0.54 0.54 81 1006.8
20150803141614 71 90 4.0 9.0 0.00 0.54 0.54 82 1006.6
20150803141414 71 90 4.0 9.0 0.00 0.54 0.54 82 1006.6
20150803141314 72 91 5.0 9.0 0.00 0.54 0.54 82 1006.5
20150803141214 72 94 4.0 7.0 0.00 0.54 0.54 81 1006.5
20150803141113 71 91 4.0 7.0 0.00 0.54 0.54 82 1006.6
20150803141014 71 88 3.0 7.0 0.00 0.54 0.54 82 1006.5
20150803140914 71 85 3.0 7.0 0.00 0.54 0.54 83 1006.6
20150803140714 71 83 3.0 8.0 0.00 0.54 0.54 83 1006.4
20150803140614 70 83 5.0 8.0 0.00 0.54 0.54 82 1006.4
20150803140413 70 77 5.0 8.0 0.00 0.54 0.54 82 1006.5
20150803140314 70 77 5.0 8.0 0.00 0.54 0.54 82 1006.5
20150803140214 70 76 5.0 8.0 0.00 0.54 0.54 82 1006.5
20150803140114 70 75 5.0 8.0 0.00 0.54 0.54 82 1006.6
20150803135814 70 80 5.0 8.0 0.00 0.54 0.54 82 1006.6
20150803135614 70 81 3.0 7.0 0.00 0.54 0.54 83 1006.5
20150803135513 70 85 3.0 7.0 0.00 0.54 0.54 83 1006.5
20150803135413 70 91 4.0 7.0 0.00 0.54 0.54 83 1006.6
20150803135314 70 90 4.0 8.0 0.00 0.54 0.54 84 1006.7
20150803134914 70 85 3.0 8.0 0.00 0.54 0.54 84 1007.0
20150803134813 70 80 3.0 8.0 0.00 0.54 0.54 84 1006.7
20150803134614 69 88 2.0 8.0 0.00 0.54 0.54 85 1006.7
20150803134514 69 90 3.0 8.0 0.00 0.54 0.54 84 1006.9
20150803134313 69 93 6.0 8.0 0.00 0.54 0.54 84 1007.0
20150803134213 69 94 3.0 7.0 0.00 0.54 0.54 85 1006.8
20150803134014 69 102 2.0 7.0 0.00 0.54 0.54 84 1007.0
20150803133814 69 122 3.0 7.0 0.00 0.54 0.54 85 1007.0
20150803133714 69 119 3.0 6.0 0.00 0.54 0.54 85 1007.0
20150803133613 69 116 3.0 6.0 0.00 0.54 0.54 85 1007.1
20150803133513 69 113 4.0 6.0 0.00 0.54 0.54 85 1007.0
20150803133414 69 110 3.0 5.0 0.00 0.54 0.54 86 1006.9
20150803133314 69 112 2.0 5.0 0.00 0.54 0.54 86 1006.9
20150803133214 69 117 2.0 5.0 0.00 0.54 0.54 86 1006.9
20150803133013 69 113 3.0 5.0 0.00 0.54 0.54 86 1006.9
20150803132913 69 104 4.0 5.0 0.00 0.54 0.54 86 1007.0
20150803132814 68 100 1.0 4.0 0.00 0.54 0.54 86 1006.8
20150803132714 68 102 3.0 4.0 0.00 0.54 0.54 87 1006.9
20150803132614 68 112 1.0 4.0 0.00 0.54 0.54 87 1006.9
20150803132514 68 118 3.0 4.0 0.00 0.54 0.54 87 1006.7
20150803132414 68 122 3.0 4.0 0.00 0.54 0.54 87 1006.8
20150803132313 68 120 3.0 5.0 0.00 0.54 0.54 88 1006.7
20150803132214 69 115 1.0 5.0 0.00 0.54 0.54 88 1006.8
20150803132114 68 111 2.0 5.0 0.00 0.54 0.54 88 1006.8
20150803132014 68 112 2.0 5.0 0.00 0.54 0.54 88 1006.8
20150803131914 68 119 2.0 5.0 0.00 0.54 0.54 89 1006.9
20150803131814 68 124 1.0 5.0 0.00 0.54 0.54 89 1006.8
20150803131413 67 105 3.0 5.0 0.00 0.54 0.54 90 1007.0
20150803131314 67 108 2.0 5.0 0.00 0.54 0.54 90 1007.0
20150803131214 67 110 1.0 5.0 0.00 0.54 0.54 90 1006.7
20150803131114 67 117 3.0 5.0 0.00 0.54 0.54 90 1006.8
20150803131014 67 126 1.0 5.0 0.00 0.54 0.54 89 1006.8
20150803130914 67 125 1.0 5.0 0.00 0.54 0.54 89 1006.9
20150803130713 67 125 3.0 5.0 0.00 0.54 0.54 89 1006.9
20150803130614 66 126 3.0 5.0 0.00 0.54 0.54 90 1006.9
20150803130514 67 125 3.0 5.0 0.00 0.54 0.54 90 1006.7
20150803130214 67 119 3.0 5.0 0.00 0.54 0.54 92 1007.1
20150803130114 67 113 3.0 5.0 0.00 0.54 0.54 92 1006.9
20150803125714 67 110 3.0 5.0 0.00 0.54 0.54 93 1006.8
20150803125613 67 108 3.0 5.0 0.00 0.54 0.54 92 1006.9
20150803125514 67 107 3.0 5.0 0.00 0.54 0.54 92 1006.8
20150803125314 67 115 3.0 5.0 0.00 0.54 0.54 92 1006.8
20150803125113 66 129 4.0 5.0 0.00 0.54 0.54 92 1006.7
20150803125014 67 130 3.0 4.0 0.00 0.54 0.54 92 1006.9
20150803124813 67 134 1.0 3.0 0.00 0.54 0.54 92 1006.8
20150803124614 67 117 2.0 3.0 0.00 0.54 0.54 94 1006.7
20150803124514 67 110 2.0 3.0 0.00 0.54 0.54 95 1006.8
20150803124414 68 99 2.0 3.0 0.00 0.54 0.54 96 1006.7
20150803124114 66 90 0.0 5.0 0.00 0.54 0.54 98 1006.8
20150803124014 66 95 0.0 5.0 0.00 0.54 0.54 98 1006.7
20150803123913 66 94 0.0 5.0 0.00 0.54 0.54 99 1006.7
20150803123614 64 100 3.0 5.0 0.00 0.54 0.54 99 1006.4
20150803123514 64 111 3.0 5.0 0.00 0.54 0.54 99 1006.6
20150803123414 64 136 3.0 5.0 0.00 0.54 0.54 97 1006.6
20150803123313 64 229 3.0 4.0 0.00 0.54 0.54 97 1006.8
20150803123214 64 232 3.0 5.0 0.00 0.54 0.54 97 1006.8
20150803123114 64 258 3.0 5.0 0.00 0.54 0.54 97 1006.9
20150803123014 64 270 1.0 5.0 0.01 0.54 0.54 97 1006.8
20150803122914 64 270 0.0 5.0 0.01 0.54 0.54 97 1006.8
20150803122813 64 270 1.0 5.0 0.01 0.54 0.54 97 1006.9
20150803122614 64 270 2.0 5.0 0.01 0.54 0.54 97 1006.8
20150803122514 64 270 1.0 5.0 0.01 0.54 0.54 97 1006.7
20150803122414 64 270 1.0 5.0 0.01 0.54 0.54 97 1006.9
20150803122314 64 266 3.0 5.0 0.01 0.54 0.54 97 1006.6
20150803122213 63 265 3.0 5.0 0.01 0.54 0.54 97 1006.6
20150803122114 63 262 3.0 7.0 0.01 0.54 0.54 97 1006.5
20150803122014 63 251 3.0 9.0 0.01 0.54 0.54 97 1006.8
20150803121914 63 258 3.0 9.0 0.01 0.54 0.54 97 1006.7
20150803121814 63 250 3.0 9.0 0.01 0.54 0.54 97 1006.6
20150803121713 63 213 3.0 10.0 0.01 0.54 0.54 97 1006.7
20150803121614 63 140 3.0 10.0 0.01 0.54 0.54 97 1006.9
20150803121513 63 115 3.0 10.0 0.01 0.54 0.54 97 1006.8
20150803121413 63 105 3.0 14.0 0.01 0.54 0.54 97 1006.7
20150803121313 63 82 1.0 16.0 0.01 0.54 0.54 97 1006.6
20150803121214 63 88 3.0 16.0 0.01 0.54 0.54 97 1006.4
20150803121114 63 80 5.0 16.0 0.01 0.54 0.54 97 1006.3
20150803121014 63 73 5.0 16.0 0.01 0.54 0.54 97 1006.2
20150803120714 63 55 6.0 16.0 0.01 0.54 0.54 97 1006.2
20150803120614 63 58 6.0 16.0 0.01 0.54 0.54 97 1006.1
20150803120514 63 51 6.0 16.0 0.01 0.54 0.54 97 1006.0
20150803120414 63 53 8.0 16.0 0.01 0.54 0.54 97 1006.0
20150803120313 63 60 9.0 16.0 0.01 0.54 0.54 97 1006.0
20150803120213 63 46 11.0 15.0 0.02 0.54 0.54 97 1005.8
20150803120113 63 42 9.0 15.0 0.02 0.54 0.54 97 1005.8
20150803120014 63 46 9.0 15.0 0.02 0.54 0.54 97 1005.5
20150803115914 63 59 8.0 15.0 0.02 0.54 0.54 97 1005.4
20150803115814 63 70 9.0 15.0 0.02 0.54 0.54 97 1005.8
20150803115613 63 67 7.0 13.0 0.04 0.54 0.54 97 1006.0
20150803115513 62 71 7.0 13.0 0.04 0.54 0.54 98 1006.3
20150803115414 63 69 5.0 13.0 0.04 0.54 0.54 97 1007.0
20150803115314 63 67 8.0 13.0 0.05 0.54 0.54 97 1007.3
20150803115214 62 70 5.0 13.0 0.05 0.54 0.54 98 1007.6
20150803115013 62 74 5.0 8.0 0.06 0.54 0.54 98 1008.3
20150803114814 62 75 5.0 8.0 0.06 0.54 0.54 98 1008.2
20150803114614 62 78 5.0 8.0 0.08 0.54 0.54 98 1008.2
20150803114514 63 69 4.0 8.0 0.08 0.54 0.54 97 1008.4
20150803114314 62 82 3.0 8.0 0.08 0.54 0.54 98 1008.4
20150803114114 62 81 3.0 8.0 0.11 0.54 0.54 98 1008.6
20150803114013 63 302 3.0 8.0 0.11 0.54 0.54 97 1008.6
20150803113813 63 316 2.0 8.0 0.12 0.54 0.54 97 1008.5
20150803113313 63 339 1.0 8.0 0.14 0.54 0.54 97 1008.7
20150803113213 63 337 5.0 8.0 0.15 0.54 0.54 97 1008.8
20150803113114 62 323 3.0 7.0 0.15 0.54 0.54 98 1008.9
20150803112914 62 3 3.0 5.0 0.17 0.53 0.53 98 1009.1
20150803112813 62 331 3.0 5.0 0.18 0.53 0.53 98 1008.9
20150803112714 62 329 3.0 5.0 0.18 0.53 0.53 98 1008.9
20150803112514 62 340 2.0 5.0 0.19 0.53 0.53 98 1009.2
20150803112413 62 359 2.0 5.0 0.20 0.53 0.53 98 1009.0
20150803112213 62 15 1.0 5.0 0.24 0.53 0.53 98 1009.2
20150803112114 62 25 2.0 5.0 0.24 0.53 0.53 98 1009.3
20150803112014 62 24 3.0 5.0 0.26 0.53 0.53 98 1009.3
20150803111914 62 19 2.0 7.0 0.27 0.53 0.53 98 1009.4
20150803111613 62 41 1.0 7.0 0.33 0.53 0.53 98 1009.6
20150803111413 62 24 0.0 7.0 0.38 0.53 0.53 98 1009.8
20150803111314 62 19 2.0 7.0 0.39 0.53 0.53 98 1009.6
20150803111214 62 4 3.0 7.0 0.39 0.53 0.53 98 1009.7
20150803111114 62 355 1.0 7.0 0.41 0.53 0.53 98 1009.8
20150803110814 62 330 4.0 7.0 0.44 0.53 0.53 98 1009.6
20150803110713 62 322 1.0 7.0 0.46 0.53 0.53 98 1009.6
20150803110614 62 317 1.0 7.0 0.46 0.53 0.53 98 1009.8
20150803110514 62 315 1.0 7.0 0.50 0.53 0.53 98 1009.6
20150803110414 62 309 3.0 7.0 0.51 0.53 0.53 98 1009.8
20150803110113 62 303 5.0 7.0 0.52 0.52 0.52 98 1009.8
20150803110013 62 303 3.0 7.0 0.52 0.52 0.52 98 1010.0
20150803105914 62 293 2.0 7.0 0.52 0.52 0.52 98 1009.9
20150803105814 62 295 3.0 7.0 0.52 0.52 0.52 98 1010.1
20150803105614 63 292 1.0 7.0 0.51 0.51 0.51 97 1010.3
20150803105513 62 291 2.0 7.0 0.51 0.51 0.51 98 1010.2
20150803105414 62 288 3.0 8.0 0.50 0.50 0.50 98 1010.1
20150803105314 62 283 2.0 8.0 0.50 0.50 0.50 98 1010.2
20150803105214 63 291 3.0 8.0 0.48 0.48 0.48 97 1010.1
20150803105013 62 287 3.0 9.0 0.48 0.48 0.48 98 1010.1
20150803104914 62 292 4.0 9.0 0.48 0.48 0.48 98 1010.1
20150803104813 62 293 6.0 9.0 0.47 0.47 0.47 98 1010.0
20150803104713 63 288 4.0 9.0 0.47 0.47 0.47 97 1010.3
20150803104313 62 274 2.0 9.0 0.45 0.45 0.45 98 1010.8
20150803104214 62 262 1.0 9.0 0.44 0.44 0.44 98 1010.8
20150803104114 63 270 4.0 9.0 0.44 0.44 0.44 97 1010.8
20150803103914 62 275 1.0 11.0 0.43 0.43 0.43 98 1010.9
20150803103814 63 272 2.0 11.0 0.43 0.43 0.43 97 1010.9
20150803103413 63 263 3.0 11.0 0.40 0.40 0.40 97 1010.5
20150803103314 63 267 3.0 11.0 0.40 0.40 0.40 97 1010.4
20150803103214 63 266 3.0 11.0 0.39 0.39 0.39 97 1010.3
20150803103114 63 261 3.0 11.0 0.38 0.38 0.38 97 1010.3
20150803103014 63 264 3.0 11.0 0.37 0.37 0.37 97 1010.4
20150803102913 63 264 7.0 11.0 0.35 0.35 0.35 97 1010.3
20150803102813 63 261 5.0 11.0 0.35 0.35 0.35 97 1010.3
20150803102714 63 264 3.0 11.0 0.35 0.35 0.35 97 1010.3
20150803102614 63 264 5.0 11.0 0.34 0.34 0.34 97 1010.2
20150803102315 63 278 2.0 10.0 0.32 0.32 0.32 97 1010.2
20150803102214 63 278 1.0 10.0 0.30 0.30 0.30 97 1010.1
20150803102014 64 273 5.0 17.0 0.27 0.27 0.27 97 1010.2
20150803101914 63 286 3.0 17.0 0.26 0.26 0.26 97 1010.1
20150803101713 63 299 4.0 17.0 0.21 0.21 0.21 96 1010.1
20150803101413 64 293 3.0 17.0 0.15 0.15 0.15 94 1010.0
20150803101314 64 294 5.0 17.0 0.14 0.14 0.14 94 1009.5
20150803101214 64 304 3.0 17.0 0.13 0.13 0.13 93 1009.8
20150803100914 64 304 8.0 15.0 0.09 0.09 0.09 90 1009.7
20150803100714 65 291 4.0 16.0 0.07 0.07 0.07 87 1009.7
20150803100614 66 285 4.0 16.0 0.04 0.04 0.04 84 1009.6
20150803100314 67 290 6.0 16.0 0.00 0.00 0.00 78 1009.3
20150803100214 68 273 7.0 16.0 0.00 0.00 0.00 76 1009.1
20150803100013 68 270 7.0 16.0 0.00 0.00 0.00 76 1009.0
20150803095914 68 271 5.0 16.0 0.00 0.00 0.00 75 1008.8
20150803095714 68 276 8.0 17.0 0.00 0.00 0.00 74 1009.0
20150803095614 68 280 9.0 19.0 0.00 0.00 0.00 74 1008.9
20150803095413 68 278 9.0 19.0 0.00 0.00 0.00 73 1008.6
20150803095314 68 276 8.0 19.0 0.00 0.00 0.00 73 1008.5
20150803095013 69 279 8.0 21.0 0.00 0.00 0.00 73 1008.2
20150803094913 69 286 9.0 21.0 0.00 0.00 0.00 73 1008.1
20150803094813 69 288 11.0 21.0 0.00 0.00 0.00 73 1008.3
20150803094714 69 291 7.0 21.0 0.00 0.00 0.00 73 1008.3
20150803094513 69 305 9.0 21.0 0.00 0.00 0.00 74 1008.1
20150803094414 69 304 5.0 21.0 0.00 0.00 0.00 74 1008.0
20150803094314 69 307 7.0 21.0 0.00 0.00 0.00 74 1008.2
20150803094114 69 305 7.0 21.0 0.00 0.00 0.00 76 1008.2
20150803093913 68 313 10.0 17.0 0.00 0.00 0.00 78 1008.2
20150803093813 69 318 9.0 17.0 0.00 0.00 0.00 80 1007.9
20150803093714 69 315 7.0 15.0 0.00 0.00 0.00 80 1007.8
20150803093615 69 313 9.0 15.0 0.00 0.00 0.00 81 1008.1
20150803093513 68 312 4.0 15.0 0.00 0.00 0.00 82 1007.9
20150803093314 68 313 9.0 15.0 0.00 0.00 0.00 87 1007.6
20150803093113 68 345 5.0 15.0 0.00 0.00 0.00 88 1007.6
20150803093014 67 342 9.0 15.0 0.00 0.00 0.00 87 1008.1
20150803092914 68 313 7.0 9.0 0.00 0.00 0.00 86 1008.1
20150803092813 68 270 5.0 8.0 0.00 0.00 0.00 84 1007.7
20150803092514 68 0 0.0 0.0 0.00 0.00 0.00 82 1006.6
20150803092414 69 0 0.0 0.0 0.00 0.00 0.00 82 1006.7
20150803092314 69 0 0.0 0.0 0.00 0.00 0.00 82 1006.5
20150803092113 68 90 0.0 1.0 0.00 0.00 0.00 81 1006.5
20150803092013 69 90 0.0 1.0 0.00 0.00 0.00 81 1006.3
20150803091914 68 90 0.0 2.0 0.00 0.00 0.00 81 1006.5
20150803091814 69 90 0.0 2.0 0.00 0.00 0.00 81 1006.4
20150803091718 69 90 0.0 2.0 0.00 0.00 0.00 81 1006.4
20150803091613 69 100 0.0 3.0 0.00 0.00 0.00 81 1006.2
20150803091513 69 113 0.0 3.0 0.00 0.00 0.00 81 1006.3
20150803091413 69 109 0.0 3.0 0.00 0.00 0.00 81 1006.2
20150803091314 69 105 0.0 4.0 0.00 0.00 0.00 80 1006.2
20150803091113 69 108 1.0 4.0 0.00 0.00 0.00 80 1006.2
20150803090813 69 106 0.0 4.0 0.00 0.00 0.00 80 1006.2
20150803090614 69 96 1.0 4.0 0.00 0.00 0.00 81 1006.1
20150803090413 69 90 1.0 4.0 0.00 0.00 0.00 81 1006.0
20150803090014 69 82 1.0 4.0 0.00 0.00 0.00 81 1006.0
20150803085913 69 82 1.0 4.0 0.00 0.00 0.00 81 1005.9
20150803085614 68 84 2.0 4.0 0.00 0.00 0.00 82 1005.8
20150803085514 68 83 3.0 3.0 0.00 0.00 0.00 82 1005.8
20150803085413 68 83 1.0 3.0 0.00 0.00 0.00 82 1006.0
20150803085313 68 84 1.0 3.0 0.00 0.00 0.00 82 1005.9
20150803085113 68 87 1.0 3.0 0.00 0.00 0.00 82 1005.8
20150803085014 68 87 2.0 3.0 0.00 0.00 0.00 82 1005.8
20150803084914 68 87 2.0 3.0 0.00 0.00 0.00 82 1005.8
20150803084713 68 87 1.0 3.0 0.00 0.00 0.00 83 1006.0
20150803084613 68 94 1.0 3.0 0.00 0.00 0.00 83 1005.9
20150803084514 68 98 1.0 3.0 0.00 0.00 0.00 83 1005.9
20150803084414 68 103 1.0 3.0 0.00 0.00 0.00 83 1005.9
20150803084313 68 102 1.0 4.0 0.00 0.00 0.00 83 1005.8
20150803084213 68 104 1.0 4.0 0.00 0.00 0.00 83 1006.0
20150803084114 68 106 0.0 4.0 0.00 0.00 0.00 83 1006.0
20150803084014 68 112 1.0 5.0 0.00 0.00 0.00 83 1006.0
20150803083813 68 115 1.0 5.0 0.00 0.00 0.00 82 1006.1
20150803083713 68 110 1.0 5.0 0.00 0.00 0.00 83 1006.0
20150803083514 68 97 1.0 5.0 0.00 0.00 0.00 82 1005.9
20150803083313 68 90 2.0 5.0 0.00 0.00 0.00 81 1006.0
20150803083113 69 86 3.0 5.0 0.00 0.00 0.00 81 1006.0
20150803082814 69 77 2.0 5.0 0.00 0.00 0.00 80 1005.8
20150803082713 69 80 3.0 5.0 0.00 0.00 0.00 80 1006.1
20150803082613 69 81 3.0 5.0 0.00 0.00 0.00 80 1005.8
20150803082113 69 91 2.0 5.0 0.00 0.00 0.00 79 1006.1
20150803082013 69 91 3.0 5.0 0.00 0.00 0.00 79 1005.9
20150803081914 69 95 3.0 5.0 0.00 0.00 0.00 79 1006.0
20150803081814 69 95 2.0 5.0 0.00 0.00 0.00 79 1006.0
20150803081513 69 96 3.0 5.0 0.00 0.00 0.00 79 1006.1
20150803081313 69 91 1.0 4.0 0.00 0.00 0.00 79 1006.0
20150803081114 69 94 2.0 4.0 0.00 0.00 0.00 79 1006.1
20150803080813 69 94 3.0 3.0 0.00 0.00 0.00 79 1006.1
20150803080713 69 99 2.0 4.0 0.00 0.00 0.00 79 1006.2
20150803080613 69 98 1.0 4.0 0.00 0.00 0.00 80 1006.2
20150803080514 69 99 1.0 4.0 0.00 0.00 0.00 80 1006.2
20150803080313 69 98 1.0 4.0 0.00 0.00 0.00 80 1006.5
20150803080113 69 98 1.0 4.0 0.00 0.00 0.00 80 1006.3
20150803080013 69 98 1.0 4.0 0.00 0.00 0.00 80 1006.4
20150803075914 69 97 1.0 4.0 0.00 0.00 0.00 80 1006.4
20150803075814 69 91 2.0 4.0 0.00 0.00 0.00 79 1006.4
20150803075613 69 84 1.0 3.0 0.00 0.00 0.00 79 1006.2
20150803075513 69 85 1.0 3.0 0.00 0.00 0.00 79 1006.5
20150803075413 69 86 2.0 3.0 0.00 0.00 0.00 79 1006.2
20150803075314 69 87 1.0 3.0 0.00 0.00 0.00 80 1006.3
20150803075214 69 90 2.0 3.0 0.00 0.00 0.00 80 1006.3
20150803075013 69 90 2.0 3.0 0.00 0.00 0.00 80 1006.4
20150803074913 69 92 1.0 3.0 0.00 0.00 0.00 80 1006.3
20150803074813 69 96 1.0 3.0 0.00 0.00 0.00 80 1006.5
20150803074714 69 99 0.0 3.0 0.00 0.00 0.00 80 1006.5
20150803074513 69 99 1.0 3.0 0.00 0.00 0.00 80 1006.6
20150803074415 69 95 0.0 3.0 0.00 0.00 0.00 80 1006.5
20150803074213 69 102 1.0 4.0 0.00 0.00 0.00 79 1006.3
20150803074113 69 102 1.0 4.0 0.00 0.00 0.00 79 1006.4
20150803074013 69 102 1.0 4.0 0.00 0.00 0.00 79 1006.4
20150803073814 69 101 1.0 4.0 0.00 0.00 0.00 79 1006.5
20150803073514 69 98 1.0 4.0 0.00 0.00 0.00 78 1006.4
20150803073214 69 87 1.0 4.0 0.00 0.00 0.00 78 1006.5
20150803072814 69 87 1.0 4.0 0.00 0.00 0.00 78 1006.1
20150803072613 69 85 2.0 3.0 0.00 0.00 0.00 78 1006.2
20150803072314 69 96 2.0 4.0 0.00 0.00 0.00 78 1006.3
20150803072213 69 96 1.0 4.0 0.00 0.00 0.00 79 1006.4
20150803072013 69 97 2.0 4.0 0.00 0.00 0.00 79 1006.5
20150803071913 69 102 1.0 4.0 0.00 0.00 0.00 79 1006.4
20150803071814 69 105 1.0 4.0 0.00 0.00 0.00 79 1006.3
20150803071613 69 106 1.0 4.0 0.00 0.00 0.00 79 1006.5
20150803071513 69 105 1.0 4.0 0.00 0.00 0.00 79 1006.4
20150803071413 69 103 1.0 4.0 0.00 0.00 0.00 79 1006.3
20150803071213 69 101 1.0 3.0 0.00 0.00 0.00 79 1006.3
20150803071114 69 101 1.0 3.0 0.00 0.00 0.00 79 1006.3
20150803071014 69 101 2.0 3.0 0.00 0.00 0.00 78 1006.5
20150803070713 69 102 2.0 3.0 0.00 0.00 0.00 78 1006.3
20150803070613 69 107 1.0 3.0 0.00 0.00 0.00 78 1006.3
20150803070514 69 111 2.0 3.0 0.00 0.00 0.00 78 1006.4
20150803070414 69 119 2.0 3.0 0.00 0.00 0.00 78 1006.3
20150803070313 69 120 1.0 3.0 0.00 0.00 0.00 78 1006.3
20150803070213 69 121 1.0 3.0 0.00 0.00 0.00 77 1006.3
20150803070113 69 123 0.0 3.0 0.00 0.00 0.00 77 1006.2
20150803065914 69 119 1.0 4.0 0.00 0.00 0.00 77 1006.3
20150803065714 69 114 1.0 4.0 0.00 0.00 0.00 77 1006.2
20150803065613 69 109 1.0 4.0 0.00 0.00 0.00 77 1006.3
20150803065513 69 107 1.0 4.0 0.00 0.00 0.00 77 1006.2
20150803065413 69 98 1.0 4.0 0.00 0.00 0.00 77 1006.3
20150803065313 69 96 1.0 4.0 0.00 0.00 0.00 76 1006.2
20150803065214 69 96 1.0 4.0 0.00 0.00 0.00 76 1006.5
20150803065113 70 96 0.0 4.0 0.00 0.00 0.00 76 1006.2
20150803064813 70 90 1.0 3.0 0.00 0.00 0.00 75 1006.2
20150803064614 70 90 1.0 4.0 0.00 0.00 0.00 75 1006.5
20150803064514 70 86 2.0 4.0 0.00 0.00 0.00 75 1006.3
20150803064413 70 85 1.0 4.0 0.00 0.00 0.00 75 1006.2
20150803064313 70 86 0.0 4.0 0.00 0.00 0.00 75 1006.3
20150803064014 70 86 2.0 4.0 0.00 0.00 0.00 74 1006.4
20150803063914 70 85 1.0 4.0 0.00 0.00 0.00 74 1006.2
20150803063613 70 87 2.0 4.0 0.00 0.00 0.00 74 1006.4
20150803063514 70 91 2.0 3.0 0.00 0.00 0.00 74 1006.3
20150803063213 70 92 1.0 3.0 0.00 0.00 0.00 74 1006.4
20150803062913 70 87 0.0 4.0 0.00 0.00 0.00 74 1006.4
20150803062714 70 85 1.0 4.0 0.00 0.00 0.00 74 1006.2
20150803062613 70 85 2.0 4.0 0.00 0.00 0.00 74 1006.3
20150803062513 70 85 1.0 4.0 0.00 0.00 0.00 74 1006.4
20150803062413 70 85 0.0 4.0 0.00 0.00 0.00 74 1006.3
20150803062313 71 88 1.0 4.0 0.00 0.00 0.00 74 1006.2
20150803062214 71 89 1.0 4.0 0.00 0.00 0.00 74 1006.1
20150803062114 71 88 3.0 4.0 0.00 0.00 0.00 74 1006.3
20150803062013 70 97 2.0 4.0 0.00 0.00 0.00 74 1006.2
20150803061913 70 100 2.0 3.0 0.00 0.00 0.00 74 1006.3
20150803061813 70 100 1.0 3.0 0.00 0.00 0.00 74 1006.2
20150803061613 70 100 1.0 3.0 0.00 0.00 0.00 75 1006.4
20150803061514 70 100 1.0 3.0 0.00 0.00 0.00 75 1006.3
20150803061314 70 96 1.0 3.0 0.00 0.00 0.00 75 1006.4
20150803061213 70 94 1.0 3.0 0.00 0.00 0.00 75 1006.5
20150803061113 70 94 2.0 3.0 0.00 0.00 0.00 75 1006.5
20150803061013 70 90 1.0 3.0 0.00 0.00 0.00 75 1006.5
20150803060914 70 90 1.0 3.0 0.00 0.00 0.00 75 1006.4
20150803060814 70 94 1.0 3.0 0.00 0.00 0.00 75 1006.6
20150803060714 70 102 1.0 4.0 0.00 0.00 0.00 75 1006.5
20150803060613 70 109 2.0 4.0 0.00 0.00 0.00 74 1006.7
20150803060314 70 131 2.0 4.0 0.00 0.00 0.00 74 1006.7
20150803060013 70 149 2.0 4.0 0.00 0.00 0.00 74 1006.9
20150803055913 70 157 1.0 4.0 0.00 0.00 0.00 74 1006.7
20150803055714 70 147 1.0 4.0 0.00 0.00 0.00 74 1006.5
20150803055614 70 141 2.0 4.0 0.00 0.00 0.00 74 1006.6
20150803055513 70 145 1.0 4.0 0.00 0.00 0.00 74 1006.8
20150803055413 71 145 2.0 4.0 0.00 0.00 0.00 74 1006.6
20150803055313 70 140 1.0 4.0 0.00 0.00 0.00 74 1006.5
20150803055213 70 140 1.0 5.0 0.00 0.00 0.00 74 1006.6
20150803055114 71 138 1.0 5.0 0.00 0.00 0.00 74 1006.5
20150803055014 71 136 2.0 5.0 0.00 0.00 0.00 74 1006.7
20150803054914 71 128 2.0 5.0 0.00 0.00 0.00 74 1006.4
20150803054814 70 123 1.0 5.0 0.00 0.00 0.00 74 1006.6
20150803054713 70 120 1.0 5.0 0.00 0.00 0.00 74 1006.5
20150803054614 70 118 3.0 5.0 0.00 0.00 0.00 73 1006.4
20150803054514 70 117 2.0 5.0 0.00 0.00 0.00 73 1006.5
20150803054413 71 111 1.0 5.0 0.00 0.00 0.00 73 1006.5
20150803054113 71 99 3.0 6.0 0.00 0.00 0.00 73 1006.3
20150803053914 71 96 1.0 6.0 0.00 0.00 0.00 72 1006.4
20150803053613 71 100 2.0 6.0 0.00 0.00 0.00 72 1006.4
20150803053414 71 90 1.0 6.0 0.00 0.00 0.00 72 1006.5
20150803053314 71 82 3.0 6.0 0.00 0.00 0.00 72 1006.4
20150803053213 71 85 3.0 6.0 0.00 0.00 0.00 72 1006.3
20150803053113 71 86 3.0 6.0 0.00 0.00 0.00 72 1006.2
20150803053013 72 86 2.0 6.0 0.00 0.00 0.00 71 1006.2
20150803052913 72 86 3.0 6.0 0.00 0.00 0.00 71 1006.3
20150803052613 72 87 4.0 6.0 0.00 0.00 0.00 71 1006.3
20150803052513 72 94 4.0 6.0 0.00 0.00 0.00 71 1006.5
20150803052213 72 90 1.0 5.0 0.00 0.00 0.00 71 1006.3
20150803052014 72 87 2.0 5.0 0.00 0.00 0.00 71 1006.4
20150803051914 72 86 3.0 5.0 0.00 0.00 0.00 71 1006.5
20150803051713 72 81 3.0 5.0 0.00 0.00 0.00 71 1006.4
20150803051613 72 83 3.0 5.0 0.00 0.00 0.00 71 1006.4
20150803051513 72 82 3.0 5.0 0.00 0.00 0.00 71 1006.3
20150803051213 71 94 1.0 5.0 0.00 0.00 0.00 73 1006.5
20150803051113 71 99 2.0 5.0 0.00 0.00 0.00 73 1006.5
20150803051013 71 97 2.0 5.0 0.00 0.00 0.00 73 1006.3
20150803050913 71 96 1.0 5.0 0.00 0.00 0.00 73 1006.6
20150803050713 71 100 2.0 5.0 0.00 0.00 0.00 72 1006.4
20150803050614 71 95 1.0 5.0 0.00 0.00 0.00 72 1006.7
20150803050513 72 95 1.0 5.0 0.00 0.00 0.00 71 1006.6
20150803050413 72 94 1.0 5.0 0.00 0.00 0.00 71 1006.6
20150803050214 72 89 1.0 5.0 0.00 0.00 0.00 71 1006.6
20150803050013 72 94 3.0 5.0 0.00 0.00 0.00 71 1006.8
20150803045714 72 96 1.0 5.0 0.00 0.00 0.00 71 1006.8
20150803045614 72 95 1.0 5.0 0.00 0.00 0.00 71 1006.6
20150803045513 72 94 1.0 5.0 0.00 0.00 0.00 71 1006.7
20150803045413 72 90 3.0 5.0 0.00 0.00 0.00 71 1006.7
20150803045213 72 90 1.0 5.0 0.00 0.00 0.00 71 1006.5
20150803045014 72 82 2.0 5.0 0.00 0.00 0.00 71 1006.3
20150803044813 72 73 1.0 5.0 0.00 0.00 0.00 71 1006.4
20150803044713 72 71 1.0 5.0 0.00 0.00 0.00 71 1006.4
20150803044414 72 71 3.0 5.0 0.00 0.00 0.00 71 1006.4
20150803044214 72 71 2.0 5.0 0.00 0.00 0.00 71 1006.5
20150803044113 72 76 2.0 5.0 0.00 0.00 0.00 71 1006.6
20150803044013 72 76 3.0 5.0 0.00 0.00 0.00 71 1006.6
20150803043714 72 91 3.0 4.0 0.00 0.00 0.00 71 1006.7
20150803043513 72 98 2.0 4.0 0.00 0.00 0.00 71 1006.6
20150803043313 72 104 1.0 4.0 0.00 0.00 0.00 70 1006.8
20150803043213 72 104 1.0 4.0 0.00 0.00 0.00 70 1006.7
20150803043014 72 116 1.0 4.0 0.00 0.00 0.00 71 1006.9
20150803042813 72 125 2.0 5.0 0.00 0.00 0.00 71 1006.8
20150803042713 72 130 1.0 5.0 0.00 0.00 0.00 70 1006.8
20150803042513 72 126 1.0 5.0 0.00 0.00 0.00 70 1006.9
20150803042414 72 118 1.0 5.0 0.00 0.00 0.00 70 1006.9
20150803042313 72 115 1.0 5.0 0.00 0.00 0.00 70 1006.9
20150803042213 72 111 1.0 5.0 0.00 0.00 0.00 69 1006.8
20150803042013 73 97 2.0 5.0 0.00 0.00 0.00 69 1006.9
20150803041914 72 89 3.0 5.0 0.00 0.00 0.00 69 1006.9
20150803041714 73 83 1.0 5.0 0.00 0.00 0.00 68 1006.9
20150803041513 73 94 1.0 5.0 0.00 0.00 0.00 68 1006.8
20150803041413 73 101 3.0 4.0 0.00 0.00 0.00 69 1006.9
20150803041314 73 107 1.0 4.0 0.00 0.00 0.00 69 1006.8
20150803041113 73 120 2.0 4.0 0.00 0.00 0.00 69 1007.0
20150803041013 73 124 2.0 4.0 0.00 0.00 0.00 69 1006.8
20150803040714 73 124 1.0 4.0 0.00 0.00 0.00 69 1006.9
20150803040514 74 114 2.0 4.0 0.00 0.00 0.00 68 1006.9
20150803040413 74 109 2.0 4.0 0.00 0.00 0.00 68 1006.9
20150803040113 74 94 2.0 4.0 0.00 0.00 0.00 68 1007.0
20150803040014 74 89 2.0 4.0 0.00 0.00 0.00 68 1007.0
20150803035914 74 86 2.0 4.0 0.00 0.00 0.00 68 1007.1
20150803035813 73 87 1.0 4.0 0.00 0.00 0.00 69 1007.1
20150803035713 73 87 2.0 4.0 0.00 0.00 0.00 69 1007.0
20150803035613 74 87 2.0 4.0 0.00 0.00 0.00 69 1006.8
20150803035313 73 86 2.0 4.0 0.00 0.00 0.00 69 1006.9
20150803034913 73 90 1.0 3.0 0.00 0.00 0.00 70 1007.1
20150803034813 73 90 2.0 3.0 0.00 0.00 0.00 70 1007.0
20150803034714 73 90 2.0 3.0 0.00 0.00 0.00 70 1007.1
20150803034413 73 90 1.0 3.0 0.00 0.00 0.00 70 1007.1
20150803034313 73 90 1.0 3.0 0.00 0.00 0.00 70 1007.0
20150803034113 73 90 0.0 5.0 0.00 0.00 0.00 70 1007.0
20150803033913 74 90 0.0 5.0 0.00 0.00 0.00 69 1007.0
20150803033813 74 90 1.0 5.0 0.00 0.00 0.00 69 1007.1
20150803033613 74 90 1.0 5.0 0.00 0.00 0.00 69 1007.0
20150803033514 74 90 1.0 5.0 0.00 0.00 0.00 69 1007.0
20150803033414 74 91 1.0 5.0 0.00 0.00 0.00 69 1007.1
20150803033215 74 90 1.0 5.0 0.00 0.00 0.00 69 1007.1
20150803033115 74 90 3.0 5.0 0.00 0.00 0.00 69 1007.2
20150803033014 74 90 1.0 4.0 0.00 0.00 0.00 69 1007.0
20150803032914 74 90 3.0 4.0 0.00 0.00 0.00 69 1007.0
20150803032814 74 87 1.0 3.0 0.00 0.00 0.00 69 1007.0
20150803032613 74 87 1.0 3.0 0.00 0.00 0.00 69 1007.1
20150803032514 74 86 2.0 3.0 0.00 0.00 0.00 69 1007.0
20150803032414 74 85 1.0 4.0 0.00 0.00 0.00 69 1007.2
20150803032313 74 87 1.0 4.0 0.00 0.00 0.00 69 1007.0
20150803032214 74 90 2.0 4.0 0.00 0.00 0.00 69 1007.0
20150803032115 74 90 2.0 4.0 0.00 0.00 0.00 69 1007.1
20150803031614 74 93 1.0 4.0 0.00 0.00 0.00 68 1007.3
20150803031514 74 93 1.0 4.0 0.00 0.00 0.00 68 1007.1
20150803031413 74 94 1.0 3.0 0.00 0.00 0.00 68 1007.2
20150803031314 74 94 1.0 3.0 0.00 0.00 0.00 68 1007.2
20150803031215 74 89 1.0 3.0 0.00 0.00 0.00 68 1007.3
20150803031113 74 87 1.0 3.0 0.00 0.00 0.00 68 1007.4
20150803030913 74 82 1.0 3.0 0.00 0.00 0.00 68 1007.3
20150803030813 74 82 1.0 3.0 0.00 0.00 0.00 68 1007.3
20150803030614 75 83 1.0 3.0 0.00 0.00 0.00 67 1007.2
20150803030513 75 80 1.0 3.0 0.00 0.00 0.00 67 1007.4
20150803030414 75 80 2.0 4.0 0.00 0.00 0.00 67 1007.4
20150803030313 75 81 1.0 4.0 0.00 0.00 0.00 67 1007.3
20150803030113 75 84 2.0 4.0 0.00 0.00 0.00 67 1007.2
20150803025913 75 88 1.0 4.0 0.00 0.00 0.00 67 1007.1
20150803025813 75 88 1.0 4.0 0.00 0.00 0.00 67 1007.3
20150803025713 75 88 1.0 4.0 0.00 0.00 0.00 66 1007.2
20150803025513 75 90 1.0 4.0 0.00 0.00 0.00 66 1007.3
20150803025415 75 90 2.0 4.0 0.00 0.00 0.00 66 1007.1
20150803025315 75 90 1.0 3.0 0.00 0.00 0.00 66 1007.3
20150803025114 75 90 2.0 3.0 0.00 0.00 0.00 66 1007.5
20150803025014 75 90 1.0 3.0 0.00 0.00 0.00 66 1007.2
20150803024914 75 90 1.0 3.0 0.00 0.00 0.00 66 1007.3
20150803024814 75 90 2.0 3.0 0.00 0.00 0.00 66 1007.1
20150803024714 75 90 1.0 3.0 0.00 0.00 0.00 66 1007.3
20150803024614 75 88 1.0 3.0 0.00 0.00 0.00 66 1007.3
20150803024514 75 86 1.0 3.0 0.00 0.00 0.00 66 1007.4
20150803024414 76 82 1.0 3.0 0.00 0.00 0.00 65 1007.3
20150803024314 75 82 1.0 3.0 0.00 0.00 0.00 65 1007.1
20150803024014 76 77 1.0 3.0 0.00 0.00 0.00 65 1007.2
20150803023814 76 75 1.0 3.0 0.00 0.00 0.00 65 1007.2
20150803023714 76 71 2.0 3.0 0.00 0.00 0.00 66 1007.2
20150803023613 76 71 1.0 3.0 0.00 0.00 0.00 66 1007.2
20150803023514 76 73 2.0 3.0 0.00 0.00 0.00 66 1007.3
20150803023414 75 79 1.0 3.0 0.00 0.00 0.00 66 1007.4
20150803023313 76 78 2.0 3.0 0.00 0.00 0.00 66 1007.3
20150803023214 75 78 2.0 3.0 0.00 0.00 0.00 66 1007.3
20150803023113 75 81 1.0 4.0 0.00 0.00 0.00 66 1007.3
20150803023013 76 80 1.0 4.0 0.00 0.00 0.00 66 1007.4
20150803022913 75 81 1.0 4.0 0.00 0.00 0.00 66 1007.3
20150803022814 75 82 1.0 4.0 0.00 0.00 0.00 66 1007.3
20150803022714 75 86 1.0 4.0 0.00 0.00 0.00 66 1007.3
20150803022514 76 90 1.0 5.0 0.00 0.00 0.00 66 1007.2
20150803022413 76 90 1.0 5.0 0.00 0.00 0.00 66 1007.4
20150803022214 76 86 3.0 5.0 0.00 0.00 0.00 66 1007.1
20150803022113 76 87 3.0 5.0 0.00 0.00 0.00 66 1007.2
20150803022013 76 86 2.0 5.0 0.00 0.00 0.00 66 1006.9
20150803021813 76 80 1.0 5.0 0.00 0.00 0.00 66 1007.0
20150803021714 76 81 3.0 5.0 0.00 0.00 0.00 66 1007.0
20150803021613 76 74 3.0 5.0 0.00 0.00 0.00 66 1006.9
20150803021513 76 68 2.0 5.0 0.00 0.00 0.00 66 1007.0
20150803021413 76 63 2.0 5.0 0.00 0.00 0.00 66 1006.9
20150803021315 76 59 3.0 5.0 0.00 0.00 0.00 66 1007.0
20150803021213 76 58 3.0 5.0 0.00 0.00 0.00 66 1006.8
20150803021113 76 52 3.0 5.0 0.00 0.00 0.00 66 1006.8
20150803021013 76 51 2.0 4.0 0.00 0.00 0.00 66 1006.8
20150803020914 76 51 1.0 4.0 0.00 0.00 0.00 66 1007.0
20150803020713 76 54 1.0 5.0 0.00 0.00 0.00 66 1006.9
20150803020613 76 55 3.0 5.0 0.00 0.00 0.00 66 1006.9
20150803020513 76 60 3.0 5.0 0.00 0.00 0.00 66 1006.9
20150803020414 76 65 3.0 5.0 0.00 0.00 0.00 66 1006.9
20150803020213 76 65 3.0 6.0 0.00 0.00 0.00 66 1007.0
20150803020113 76 73 3.0 6.0 0.00 0.00 0.00 66 1006.9
20150803020013 76 78 3.0 6.0 0.00 0.00 0.00 66 1007.0
20150803015814 76 80 3.0 6.0 0.00 0.00 0.00 66 1006.8
20150803015714 76 81 2.0 6.0 0.00 0.00 0.00 66 1006.8
20150803015613 76 84 2.0 6.0 0.00 0.00 0.00 66 1006.9
20150803015413 76 84 3.0 6.0 0.00 0.00 0.00 66 1006.9
20150803015313 76 87 3.0 6.0 0.00 0.00 0.00 66 1006.9
20150803015214 76 90 3.0 6.0 0.00 0.00 0.00 66 1006.8
20150803015113 76 89 3.0 6.0 0.00 0.00 0.00 66 1006.8
20150803014913 76 89 2.0 6.0 0.00 0.00 0.00 66 1006.8
20150803014814 76 90 3.0 6.0 0.00 0.00 0.00 66 1006.7
20150803014513 76 87 3.0 6.0 0.00 0.00 0.00 66 1006.8
20150803014414 77 83 3.0 5.0 0.00 0.00 0.00 65 1006.5
20150803014113 77 83 1.0 4.0 0.00 0.00 0.00 65 1006.8
20150803014014 77 83 1.0 4.0 0.00 0.00 0.00 65 1006.9
20150803013913 77 79 2.0 4.0 0.00 0.00 0.00 65 1006.8
20150803013713 76 79 2.0 4.0 0.00 0.00 0.00 65 1006.9
20150803013614 77 82 2.0 4.0 0.00 0.00 0.00 65 1006.7
20150803013414 77 87 2.0 5.0 0.00 0.00 0.00 65 1006.7
20150803013113 77 83 1.0 5.0 0.00 0.00 0.00 65 1006.7
20150803013014 77 83 2.0 5.0 0.00 0.00 0.00 64 1006.8
20150803012914 77 90 2.0 5.0 0.00 0.00 0.00 64 1006.6
20150803012813 77 90 1.0 5.0 0.00 0.00 0.00 65 1006.7
20150803012613 77 90 2.0 5.0 0.00 0.00 0.00 63 1006.7
20150803012513 77 90 1.0 5.0 0.00 0.00 0.00 63 1006.7
20150803012413 77 86 2.0 5.0 0.00 0.00 0.00 63 1006.9
20150803012314 77 87 1.0 5.0 0.00 0.00 0.00 63 1006.7
20150803012213 77 87 2.0 5.0 0.00 0.00 0.00 63 1006.6
20150803012114 77 90 1.0 5.0 0.00 0.00 0.00 63 1006.8
20150803012014 77 90 1.0 5.0 0.00 0.00 0.00 63 1006.7
20150803011913 77 86 2.0 5.0 0.00 0.00 0.00 63 1006.7
20150803011813 77 83 1.0 5.0 0.00 0.00 0.00 63 1006.7
20150803011713 78 82 2.0 5.0 0.00 0.00 0.00 63 1006.4
20150803011613 78 81 1.0 5.0 0.00 0.00 0.00 63 1006.7
20150803011513 78 78 1.0 5.0 0.00 0.00 0.00 63 1006.7
20150803011413 78 82 3.0 5.0 0.00 0.00 0.00 63 1006.7
20150803011214 78 77 1.0 3.0 0.00 0.00 0.00 62 1006.7
20150803011114 78 76 2.0 3.0 0.00 0.00 0.00 62 1006.8
20150803011014 78 74 2.0 3.0 0.00 0.00 0.00 62 1006.7
20150803010914 78 74 2.0 3.0 0.00 0.00 0.00 62 1006.9
20150803010815 78 75 2.0 3.0 0.00 0.00 0.00 62 1006.8
20150803010715 78 73 1.0 3.0 0.00 0.00 0.00 62 1006.9
20150803010614 78 73 1.0 3.0 0.00 0.00 0.00 62 1006.9
20150803010414 78 83 1.0 4.0 0.00 0.00 0.00 62 1006.7
20150803010314 78 81 1.0 4.0 0.00 0.00 0.00 62 1006.8
20150803010213 78 84 0.0 7.0 0.00 0.00 0.00 61 1007.0
20150803010115 78 86 0.0 7.0 0.00 0.00 0.00 61 1006.9
20150803005913 78 84 0.0 7.0 0.00 0.00 0.00 61 1006.8
20150803005513 78 82 2.0 7.0 0.00 0.00 0.00 60 1006.7
20150803005414 79 82 2.0 7.0 0.00 0.00 0.00 60 1006.6
20150803005314 79 80 3.0 7.0 0.00 0.00 0.00 59 1006.7
20150803005213 78 81 3.0 7.0 0.00 0.00 0.00 60 1006.7
20150803005114 78 77 2.0 6.0 0.00 0.00 0.00 60 1006.5
20150803004913 78 79 3.0 6.0 0.00 0.00 0.00 60 1006.8
20150803004813 78 79 2.0 6.0 0.00 0.00 0.00 60 1006.7
20150803004713 79 80 2.0 6.0 0.00 0.00 0.00 58 1006.5
20150803004614 79 80 3.0 6.0 0.00 0.00 0.00 58 1006.9
20150803004413 79 83 2.0 5.0 0.00 0.00 0.00 58 1006.8
20150803004313 79 83 3.0 5.0 0.00 0.00 0.00 58 1006.9
20150803004213 79 84 3.0 5.0 0.00 0.00 0.00 58 1006.8
20150803003814 79 78 2.0 4.0 0.00 0.00 0.00 59 1006.9
20150803003513 79 75 1.0 4.0 0.00 0.00 0.00 58 1006.8
20150803003313 80 80 1.0 4.0 0.00 0.00 0.00 58 1006.9
20150803003213 80 79 2.0 4.0 0.00 0.00 0.00 58 1006.8
20150803003113 80 82 2.0 4.0 0.00 0.00 0.00 58 1006.8
20150803003013 80 82 1.0 3.0 0.00 0.00 0.00 58 1006.6
20150803002913 80 80 1.0 3.0 0.00 0.00 0.00 58 1006.8
20150803002813 80 82 1.0 3.0 0.00 0.00 0.00 58 1006.9
20150803002714 80 83 0.0 5.0 0.00 0.00 0.00 58 1006.8
20150803002514 80 84 2.0 5.0 0.00 0.00 0.00 57 1006.9
20150803002413 80 85 1.0 5.0 0.00 0.00 0.00 57 1006.9
20150803002114 80 86 1.0 5.0 0.00 0.00 0.00 57 1006.9
20150803001913 80 85 2.0 6.0 0.00 0.00 0.00 57 1006.8
20150803001814 80 86 3.0 6.0 0.00 0.00 0.00 56 1006.9
20150803001713 80 86 3.0 6.0 0.00 0.00 0.00 56 1006.8
20150803001613 80 85 3.0 6.0 0.00 0.00 0.00 56 1006.7
20150803001513 81 85 2.0 6.0 0.00 0.00 0.00 55 1006.8
20150803001413 81 85 1.0 6.0 0.00 0.00 0.00 55 1006.8
20150803001313 81 84 3.0 6.0 0.00 0.00 0.00 55 1006.8
20150803001213 81 82 3.0 6.0 0.00 0.00 0.00 55 1006.9
20150803001114 81 85 1.0 6.0 0.00 0.00 0.00 55 1006.8
20150803001014 81 86 4.0 6.0 0.00 0.00 0.00 55 1006.8
20150803000914 81 90 2.0 3.0 0.00 0.00 0.00 54 1006.8
20150803000513 83 85 1.0 3.0 0.00 0.00 0.00 51 1006.8
20150803000417 83 85 1.0 4.0 0.00 0.00 0.00 51 1006.9
20150803000314 83 85 1.0 4.0 0.00 0.00 0.00 51 1007.1
20150803000113 83 85 1.0 4.0 0.00 0.00 0.00 51 1007.4
20150803000013 83 81 1.0 4.0 0.00 0.00 0.00 51 1007.3
20150802235913 82 80 2.0 4.0 0.00 0.00 0.00 51 1007.3
20150802235813 83 78 2.0 4.0 0.00 0.00 0.00 50 1007.3
20150802235713 83 79 2.0 4.0 0.00 0.00 0.00 50 1007.3
20150802235613 83 81 1.0 4.0 0.00 0.00 0.00 50 1007.1
20150802235413 83 83 2.0 4.0 0.00 0.00 0.00 50 1007.2
20150802235313 83 83 3.0 4.0 0.00 0.00 0.00 49 1007.2
20150802235213 83 83 2.0 4.0 0.00 0.00 0.00 49 1007.2
20150802234913 83 88 1.0 4.0 0.00 0.00 0.00 48 1007.2
20150802234713 83 90 3.0 4.0 0.00 0.00 0.00 48 1007.1
20150802234613 83 90 1.0 3.0 0.00 0.00 0.00 48 1007.0
20150802234413 84 86 1.0 3.0 0.00 0.00 0.00 48 1007.2
20150802234313 84 86 1.0 3.0 0.00 0.00 0.00 48 1007.2
20150802234213 84 86 1.0 3.0 0.00 0.00 0.00 48 1007.2
20150802234112 84 86 1.0 4.0 0.00 0.00 0.00 48 1007.2
20150802233913 84 98 1.0 5.0 0.00 0.00 0.00 47 1007.4
20150802233813 84 105 1.0 5.0 0.00 0.00 0.00 48 1007.2
20150802233414 84 112 2.0 5.0 0.00 0.00 0.00 48 1007.4
20150802233213 84 107 2.0 5.0 0.00 0.00 0.00 49 1007.4
20150802233113 84 108 3.0 5.0 0.00 0.00 0.00 46 1007.3
20150802233013 84 110 2.0 7.0 0.00 0.00 0.00 46 1007.3
20150802232914 85 114 3.0 7.0 0.00 0.00 0.00 47 1007.4
20150802232813 85 109 2.0 7.0 0.00 0.00 0.00 46 1007.2
20150802232713 85 104 2.0 7.0 0.00 0.00 0.00 46 1007.2
20150802232513 84 104 2.0 7.0 0.00 0.00 0.00 48 1007.3
20150802232413 84 104 3.0 7.0 0.00 0.00 0.00 47 1007.5
20150802232313 84 105 2.0 7.0 0.00 0.00 0.00 47 1007.3
20150802232213 84 109 3.0 7.0 0.00 0.00 0.00 48 1007.3
20150802232113 84 111 3.0 7.0 0.00 0.00 0.00 46 1007.3
20150802232014 83 106 3.0 7.0 0.00 0.00 0.00 47 1007.4
20150802231813 84 104 4.0 7.0 0.00 0.00 0.00 46 1007.3
20150802231713 85 109 4.0 6.0 0.00 0.00 0.00 47 1007.3
20150802231514 84 116 2.0 4.0 0.00 0.00 0.00 47 1007.2
20150802231413 84 120 2.0 4.0 0.00 0.00 0.00 47 1007.3
20150802231313 84 120 1.0 4.0 0.00 0.00 0.00 48 1007.4
20150802231213 83 117 2.0 5.0 0.00 0.00 0.00 47 1007.3
20150802231113 83 115 1.0 5.0 0.00 0.00 0.00 47 1007.5
20150802231013 83 112 2.0 5.0 0.00 0.00 0.00 48 1007.5
20150802230913 83 112 3.0 5.0 0.00 0.00 0.00 48 1007.6
20150802230813 83 105 3.0 5.0 0.00 0.00 0.00 48 1007.6
20150802230713 83 101 3.0 6.0 0.00 0.00 0.00 48 1007.6
20150802230613 83 100 2.0 6.0 0.00 0.00 0.00 47 1007.6
20150802230513 83 100 2.0 6.0 0.00 0.00 0.00 47 1007.7
20150802230313 83 102 1.0 6.0 0.00 0.00 0.00 47 1007.8
20150802230213 82 101 1.0 6.0 0.00 0.00 0.00 48 1007.4
20150802230113 83 105 1.0 8.0 0.00 0.00 0.00 47 1007.4
20150802225513 84 112 3.0 8.0 0.00 0.00 0.00 47 1007.5
20150802225413 84 115 3.0 8.0 0.00 0.00 0.00 45 1007.5
20150802225313 85 120 2.0 8.0 0.00 0.00 0.00 45 1007.6
20150802225113 85 127 4.0 8.0 0.00 0.00 0.00 45 1007.4
20150802225013 85 133 3.0 8.0 0.00 0.00 0.00 44 1007.3
20150802224813 85 134 3.0 8.0 0.00 0.00 0.00 44 1007.4
20150802224714 86 130 4.0 8.0 0.00 0.00 0.00 44 1007.5
20150802224613 86 118 3.0 8.0 0.00 0.00 0.00 44 1007.5
20150802224513 85 123 3.0 8.0 0.00 0.00 0.00 43 1007.6
20150802224413 86 115 5.0 8.0 0.00 0.00 0.00 42 1007.4
20150802224213 86 108 1.0 7.0 0.00 0.00 0.00 43 1007.6
20150802224113 86 102 3.0 7.0 0.00 0.00 0.00 45 1007.6
20150802223914 85 100 3.0 7.0 0.00 0.00 0.00 44 1007.5
20150802223713 85 108 5.0 7.0 0.00 0.00 0.00 44 1007.7
20150802223613 85 116 4.0 7.0 0.00 0.00 0.00 44 1007.7
20150802223513 85 113 3.0 7.0 0.00 0.00 0.00 44 1007.7
20150802223313 84 121 2.0 7.0 0.00 0.00 0.00 45 1007.8
20150802223113 85 122 2.0 6.0 0.00 0.00 0.00 44 1007.9
20150802222912 86 119 3.0 6.0 0.00 0.00 0.00 43 1007.6
20150802222713 86 109 2.0 8.0 0.00 0.00 0.00 43 1007.5
20150802222613 86 104 3.0 8.0 0.00 0.00 0.00 44 1007.5
20150802222513 86 106 3.0 8.0 0.00 0.00 0.00 44 1007.7
20150802222412 86 102 2.0 8.0 0.00 0.00 0.00 44 1007.5
20150802222213 86 101 3.0 8.0 0.00 0.00 0.00 44 1007.7
20150802222013 86 100 3.0 8.0 0.00 0.00 0.00 44 1007.5
20150802221913 86 105 2.0 8.0 0.00 0.00 0.00 44 1007.6
20150802221813 85 109 5.0 8.0 0.00 0.00 0.00 43 1007.6
20150802221713 86 109 5.0 8.0 0.00 0.00 0.00 42 1007.7
20150802221613 86 115 3.0 7.0 0.00 0.00 0.00 43 1007.7
20150802221414 86 122 4.0 7.0 0.00 0.00 0.00 43 1007.8
20150802221213 85 132 4.0 7.0 0.00 0.00 0.00 43 1007.7
20150802221113 85 143 4.0 7.0 0.00 0.00 0.00 42 1007.8
20150802221013 86 155 3.0 7.0 0.00 0.00 0.00 43 1007.8
20150802220913 86 154 3.0 7.0 0.00 0.00 0.00 44 1007.7
20150802220713 86 150 3.0 6.0 0.00 0.00 0.00 43 1007.7
20150802220612 86 139 2.0 6.0 0.00 0.00 0.00 43 1007.8
20150802220413 86 128 2.0 9.0 0.00 0.00 0.00 43 1007.6
20150802220213 86 115 2.0 9.0 0.00 0.00 0.00 43 1007.9
20150802220113 86 114 2.0 9.0 0.00 0.00 0.00 43 1007.8
20150802220013 86 109 2.0 9.0 0.00 0.00 0.00 43 1007.6
20150802215912 86 109 3.0 9.0 0.00 0.00 0.00 44 1007.8
20150802215813 85 112 2.0 9.0 0.00 0.00 0.00 43 1007.9
20150802215613 85 113 4.0 9.0 0.00 0.00 0.00 44 1007.9
20150802215413 85 105 3.0 9.0 0.00 0.00 0.00 42 1007.8
20150802215313 85 111 4.0 9.0 0.00 0.00 0.00 41 1007.9
20150802215213 85 109 5.0 9.0 0.00 0.00 0.00 43 1007.8
20150802215113 85 94 4.0 9.0 0.00 0.00 0.00 42 1007.8
20150802215013 85 89 4.0 9.0 0.00 0.00 0.00 42 1007.9
20150802214913 85 86 3.0 9.0 0.00 0.00 0.00 43 1007.8
20150802214714 85 97 1.0 9.0 0.00 0.00 0.00 44 1007.9
20150802214513 85 110 3.0 9.0 0.00 0.00 0.00 41 1007.8
20150802214413 85 116 3.0 9.0 0.00 0.00 0.00 43 1008.0
20150802214313 85 110 4.0 9.0 0.00 0.00 0.00 44 1008.0
20150802214213 85 116 4.0 9.0 0.00 0.00 0.00 42 1007.9
20150802214113 85 129 6.0 9.0 0.00 0.00 0.00 43 1008.0
20150802214013 85 138 3.0 7.0 0.00 0.00 0.00 42 1007.9
20150802213713 86 141 4.0 7.0 0.00 0.00 0.00 42 1007.9
20150802213414 86 139 3.0 7.0 0.00 0.00 0.00 39 1008.0
20150802213313 86 143 5.0 7.0 0.00 0.00 0.00 41 1008.0
20150802212914 87 146 2.0 7.0 0.00 0.00 0.00 38 1008.1
20150802212813 86 137 4.0 9.0 0.00 0.00 0.00 40 1008.2
20150802212713 86 134 5.0 9.0 0.00 0.00 0.00 44 1008.1
20150802212613 86 132 3.0 9.0 0.00 0.00 0.00 40 1008.0
20150802212413 87 127 3.0 9.0 0.00 0.00 0.00 41 1008.2
20150802212312 87 125 1.0 9.0 0.00 0.00 0.00 43 1008.2
20150802212214 86 120 4.0 9.0 0.00 0.00 0.00 42 1008.3
20150802212113 86 117 5.0 9.0 0.00 0.00 0.00 42 1008.1
20150802211913 86 107 4.0 9.0 0.00 0.00 0.00 42 1008.2
20150802211812 86 104 5.0 9.0 0.00 0.00 0.00 40 1008.2
20150802211613 86 92 3.0 7.0 0.00 0.00 0.00 42 1008.3
20150802211513 86 92 4.0 7.0 0.00 0.00 0.00 40 1008.2
20150802211113 87 86 3.0 7.0 0.00 0.00 0.00 43 1008.2
20150802211013 87 86 2.0 7.0 0.00 0.00 0.00 41 1008.2
20150802210913 86 86 2.0 7.0 0.00 0.00 0.00 39 1008.2
20150802210712 87 95 3.0 7.0 0.00 0.00 0.00 39 1008.2
20150802210613 86 99 3.0 7.0 0.00 0.00 0.00 38 1008.2
20150802210513 87 104 3.0 7.0 0.00 0.00 0.00 41 1008.4
20150802210213 86 122 3.0 9.0 0.00 0.00 0.00 43 1008.2
20150802210112 86 128 4.0 9.0 0.00 0.00 0.00 42 1008.4
20150802205813 86 130 4.0 9.0 0.00 0.00 0.00 38 1008.4
20150802205613 86 122 3.0 9.0 0.00 0.00 0.00 39 1008.2
20150802205313 86 124 6.0 9.0 0.00 0.00 0.00 42 1008.3
20150802205213 86 113 4.0 8.0 0.00 0.00 0.00 43 1008.4
20150802205013 86 115 4.0 8.0 0.00 0.00 0.00 37 1008.4
20150802204913 87 115 3.0 8.0 0.00 0.00 0.00 40 1008.4
20150802204712 86 128 1.0 8.0 0.00 0.00 0.00 37 1008.4
20150802204513 86 130 4.0 8.0 0.00 0.00 0.00 40 1008.4
20150802204413 86 125 4.0 8.0 0.00 0.00 0.00 41 1008.5
20150802204213 85 126 5.0 8.0 0.00 0.00 0.00 41 1008.4
20150802204113 85 131 5.0 8.0 0.00 0.00 0.00 40 1008.6
20150802203913 87 137 5.0 7.0 0.00 0.00 0.00 43 1008.6
20150802203814 87 127 2.0 7.0 0.00 0.00 0.00 41 1008.6
20150802203713 86 136 2.0 7.0 0.00 0.00 0.00 41 1008.5
20150802203413 87 161 3.0 8.0 0.00 0.00 0.00 40 1008.4
20150802203313 88 161 3.0 8.0 0.00 0.00 0.00 42 1008.5
20150802203114 87 164 1.0 8.0 0.00 0.00 0.00 41 1008.6
20150802203013 87 159 1.0 8.0 0.00 0.00 0.00 39 1008.5
20150802202914 86 156 5.0 8.0 0.00 0.00 0.00 41 1008.6
20150802202613 87 147 2.0 8.0 0.00 0.00 0.00 43 1008.5
20150802202512 86 145 3.0 8.0 0.00 0.00 0.00 43 1008.6
20150802202313 87 148 5.0 7.0 0.00 0.00 0.00 39 1008.6
20150802202113 87 144 1.0 7.0 0.00 0.00 0.00 40 1008.5
20150802201713 87 139 1.0 8.0 0.00 0.00 0.00 38 1008.8
20150802201613 86 138 2.0 8.0 0.00 0.00 0.00 42 1008.7
20150802201513 87 136 4.0 8.0 0.00 0.00 0.00 43 1008.7
20150802201413 86 132 3.0 8.0 0.00 0.00 0.00 42 1008.8
20150802201213 86 142 3.0 8.0 0.00 0.00 0.00 40 1008.9
20150802201113 86 143 3.0 8.0 0.00 0.00 0.00 40 1008.8
20150802200913 87 168 5.0 8.0 0.00 0.00 0.00 43 1008.6
20150802200813 86 165 3.0 5.0 0.00 0.00 0.00 43 1008.8
20150802200413 89 120 1.0 4.0 0.00 0.00 0.00 38 1008.9
20150802200314 89 115 1.0 4.0 0.00 0.00 0.00 38 1008.7
20150802200213 89 99 1.0 4.0 0.00 0.00 0.00 38 1008.7
20150802200113 89 101 1.0 5.0 0.00 0.00 0.00 38 1008.5
20150802195913 88 106 0.0 7.0 0.00 0.00 0.00 40 1008.7
20150802195812 87 117 1.0 7.0 0.00 0.00 0.00 39 1008.9
20150802195613 85 127 3.0 8.0 0.00 0.00 0.00 37 1008.8
20150802195513 87 129 3.0 8.0 0.00 0.00 0.00 40 1009.0
20150802195313 87 140 2.0 8.0 0.00 0.00 0.00 38 1008.9
20150802195212 86 138 2.0 8.0 0.00 0.00 0.00 39 1009.0
20150802195113 86 129 3.0 9.0 0.00 0.00 0.00 41 1009.0
20150802195013 86 124 5.0 9.0 0.00 0.00 0.00 41 1009.0
20150802194713 87 117 7.0 9.0 0.00 0.00 0.00 44 1008.9
20150802194612 87 114 3.0 9.0 0.00 0.00 0.00 46 1008.9
20150802194513 88 116 1.0 9.0 0.00 0.00 0.00 45 1009.0
20150802194313 86 110 2.0 9.0 0.00 0.00 0.00 43 1009.0
20150802194213 86 114 4.0 9.0 0.00 0.00 0.00 45 1008.8
20150802194113 86 123 7.0 9.0 0.00 0.00 0.00 44 1008.9
20150802194013 86 118 6.0 9.0 0.00 0.00 0.00 43 1008.8
20150802193913 86 118 3.0 8.0 0.00 0.00 0.00 43 1009.0
20150802193613 86 120 5.0 9.0 0.00 0.00 0.00 43 1009.0
20150802193513 86 128 3.0 9.0 0.00 0.00 0.00 43 1009.1
20150802193313 85 123 2.0 9.0 0.00 0.00 0.00 44 1009.0
20150802193213 85 117 3.0 9.0 0.00 0.00 0.00 44 1009.0
20150802193013 85 119 5.0 9.0 0.00 0.00 0.00 43 1009.0
20150802192812 85 119 5.0 9.0 0.00 0.00 0.00 44 1009.2
20150802192713 85 120 3.0 9.0 0.00 0.00 0.00 43 1009.1
20150802192613 85 113 4.0 8.0 0.00 0.00 0.00 44 1008.9
20150802192413 85 109 5.0 8.0 0.00 0.00 0.00 43 1009.1
20150802192312 85 110 5.0 8.0 0.00 0.00 0.00 44 1009.0
20150802192213 85 113 5.0 8.0 0.00 0.00 0.00 43 1009.2
20150802192113 85 104 4.0 8.0 0.00 0.00 0.00 44 1009.2
20150802192013 86 107 5.0 7.0 0.00 0.00 0.00 43 1009.2
20150802191913 86 103 3.0 7.0 0.00 0.00 0.00 42 1009.2
20150802191712 86 98 3.0 7.0 0.00 0.00 0.00 43 1009.2
20150802191613 85 99 2.0 8.0 0.00 0.00 0.00 43 1009.1
20150802191513 85 97 1.0 8.0 0.00 0.00 0.00 42 1009.2
20150802191313 85 104 3.0 8.0 0.00 0.00 0.00 43 1009.2
20150802191113 85 107 3.0 8.0 0.00 0.00 0.00 44 1009.0
20150802191013 86 105 3.0 8.0 0.00 0.00 0.00 44 1009.3
20150802190913 86 108 2.0 8.0 0.00 0.00 0.00 42 1009.2
20150802190613 86 124 3.0 8.0 0.00 0.00 0.00 41 1009.2
20150802190512 87 117 2.0 9.0 0.00 0.00 0.00 43 1009.2
20150802190413 87 104 2.0 9.0 0.00 0.00 0.00 43 1009.3
20150802190213 86 110 1.0 9.0 0.00 0.00 0.00 43 1009.2
20150802190113 87 108 2.0 9.0 0.00 0.00 0.00 43 1009.1
20150802190013 85 104 1.0 9.0 0.00 0.00 0.00 44 1009.5
20150802185912 85 103 2.0 9.0 0.00 0.00 0.00 44 1009.2
20150802185713 85 106 5.0 9.0 0.00 0.00 0.00 44 1009.6
20150802185613 85 107 5.0 9.0 0.00 0.00 0.00 44 1009.5
20150802185412 85 112 5.0 8.0 0.00 0.00 0.00 44 1009.4
20150802185312 86 106 5.0 8.0 0.00 0.00 0.00 43 1009.3
20150802184914 85 102 3.0 9.0 0.00 0.00 0.00 44 1009.4
20150802184813 85 99 4.0 9.0 0.00 0.00 0.00 44 1009.3
20150802184713 85 98 2.0 9.0 0.00 0.00 0.00 45 1009.4
20150802184013 85 132 5.0 11.0 0.00 0.00 0.00 44 1009.5
20150802183915 84 136 4.0 11.0 0.00 0.00 0.00 44 1009.4
20150802183713 85 136 5.0 11.0 0.00 0.00 0.00 44 1009.5
20150802183613 85 129 5.0 11.0 0.00 0.00 0.00 44 1009.5
20150802183512 84 134 5.0 11.0 0.00 0.00 0.00 43 1009.6
20150802183312 85 128 2.0 12.0 0.00 0.00 0.00 39 1009.5
20150802183113 84 125 5.0 12.0 0.00 0.00 0.00 44 1009.4
20150802183013 84 124 3.0 12.0 0.00 0.00 0.00 44 1009.5
20150802182913 84 122 3.0 12.0 0.00 0.00 0.00 45 1009.5
20150802182813 84 135 5.0 12.0 0.00 0.00 0.00 45 1009.5
20150802182712 84 134 5.0 12.0 0.00 0.00 0.00 45 1009.6
20150802182513 84 128 7.0 12.0 0.00 0.00 0.00 45 1009.6
20150802182313 85 104 4.0 10.0 0.00 0.00 0.00 46 1009.6
20150802182213 85 97 3.0 10.0 0.00 0.00 0.00 46 1009.5
20150802182113 85 90 3.0 10.0 0.00 0.00 0.00 45 1009.7
20150802182012 85 98 3.0 10.0 0.00 0.00 0.00 46 1009.4
20150802181913 85 93 5.0 10.0 0.00 0.00 0.00 44 1009.7
20150802181513 85 88 3.0 9.0 0.00 0.00 0.00 45 1009.5
20150802181413 85 92 3.0 9.0 0.00 0.00 0.00 46 1009.5
20150802181313 84 94 3.0 9.0 0.00 0.00 0.00 45 1009.6
20150802181213 84 95 5.0 9.0 0.00 0.00 0.00 45 1009.6
20150802181013 85 87 2.0 6.0 0.00 0.00 0.00 44 1009.6
20150802180913 85 88 3.0 6.0 0.00 0.00 0.00 44 1009.5
20150802180812 85 90 3.0 6.0 0.00 0.00 0.00 45 1009.5
20150802180713 85 91 2.0 5.0 0.00 0.00 0.00 45 1009.8
20150802180613 85 90 3.0 5.0 0.00 0.00 0.00 45 1009.8
20150802180413 85 90 3.0 5.0 0.00 0.00 0.00 45 1009.7
20150802180314 85 99 3.0 7.0 0.00 0.00 0.00 45 1009.7
20150802175813 86 107 3.0 7.0 0.00 0.00 0.00 44 1009.9
20150802175612 85 112 0.0 7.0 0.00 0.00 0.00 45 1009.8
20150802175513 85 110 0.0 7.0 0.00 0.00 0.00 45 1009.8
20150802175413 84 113 5.0 7.0 0.00 0.00 0.00 45 1009.7
20150802175313 84 115 5.0 7.0 0.00 0.00 0.00 46 1010.0
20150802175213 84 105 4.0 7.0 0.00 0.00 0.00 44 1009.9
20150802175113 84 110 4.0 9.0 0.00 0.00 0.00 45 1010.1
20150802175012 85 113 3.0 9.0 0.00 0.00 0.00 45 1009.8
20150802174913 85 111 3.0 10.0 0.00 0.00 0.00 44 1009.9
20150802174813 84 118 3.0 10.0 0.00 0.00 0.00 45 1009.9
20150802174713 84 121 3.0 10.0 0.00 0.00 0.00 46 1009.8
20150802174613 84 112 4.0 10.0 0.00 0.00 0.00 45 1009.9
20150802174413 83 113 3.0 10.0 0.00 0.00 0.00 45 1009.8
20150802174313 84 110 4.0 10.0 0.00 0.00 0.00 45 1009.9
20150802174213 84 114 5.0 10.0 0.00 0.00 0.00 45 1009.9
20150802173913 85 115 7.0 9.0 0.00 0.00 0.00 45 1009.8
20150802173612 84 127 5.0 8.0 0.00 0.00 0.00 45 1009.8
20150802173513 84 138 4.0 8.0 0.00 0.00 0.00 44 1009.9
20150802173213 85 156 4.0 5.0 0.00 0.00 0.00 45 1009.7
20150802173113 84 164 3.0 5.0 0.00 0.00 0.00 45 1009.8
20150802172912 85 166 2.0 5.0 0.00 0.00 0.00 48 1009.9
20150802172813 85 157 2.0 7.0 0.00 0.00 0.00 48 1009.8
20150802172713 85 151 2.0 7.0 0.00 0.00 0.00 48 1009.8
20150802172613 85 143 3.0 7.0 0.00 0.00 0.00 45 1010.0
20150802172513 85 135 1.0 7.0 0.00 0.00 0.00 46 1009.9
20150802172313 85 123 3.0 7.0 0.00 0.00 0.00 48 1010.1
20150802172213 85 113 3.0 7.0 0.00 0.00 0.00 46 1010.0
20150802172013 84 114 2.0 7.0 0.00 0.00 0.00 46 1009.8
20150802171913 84 107 3.0 8.0 0.00 0.00 0.00 48 1009.9
20150802171813 84 106 3.0 8.0 0.00 0.00 0.00 48 1010.0
20150802171713 83 106 3.0 8.0 0.00 0.00 0.00 47 1009.9
20150802171612 83 107 3.0 8.0 0.00 0.00 0.00 45 1009.9
20150802171512 83 107 2.0 8.0 0.00 0.00 0.00 48 1010.0
20150802171413 83 106 2.0 8.0 0.00 0.00 0.00 47 1009.9